This is the latest recevied weather packets stored in our database for station/object N8RJC-13. If no packets are shown the sender has not sent any weather packets the latest 1 day(s).
| Time | Temp. | Humidity | Pressure | Rain* | Wind** | Luminosity | Snow |
|---|---|---|---|---|---|---|---|
| 1778083701 | 13.89° C | 63% | 990 hPa | 0 mm | 1.34 m/s, 335° | - | - |
| 1778083641 | 13.89° C | 63% | 990 hPa | 0 mm | 1.34 m/s, 335° | - | - |
| 1778083581 | 13.89° C | 63% | 990 hPa | 0 mm | 1.34 m/s, 335° | - | - |
| 1778083521 | 13.89° C | 64% | 989.9 hPa | 0 mm | 1.34 m/s, 308° | - | - |
| 1778083461 | 13.89° C | 64% | 989.9 hPa | 0 mm | 1.34 m/s, 308° | - | - |
| 1778083401 | 13.89° C | 64% | 989.9 hPa | 0 mm | 1.34 m/s, 308° | - | - |
| 1778083221 | 14.44° C | 60% | 989.9 hPa | 0 mm | 0.89 m/s, 47° | - | - |
| 1778083101 | 14.44° C | 60% | 989.9 hPa | 0 mm | 0.89 m/s, 47° | - | - |
| 1778082981 | 14.44° C | 60% | 989.9 hPa | 0 mm | 0.89 m/s, 47° | - | - |
| 1778082921 | 15° C | 60% | 990 hPa | 0 mm | 0.89 m/s, 351° | - | - |
| 1778082861 | 15° C | 60% | 990 hPa | 0 mm | 0.89 m/s, 351° | - | - |
| 1778082621 | 13.33° C | 67% | 989.8 hPa | 0 mm | 0 m/s | - | - |
| 1778082566 | 13.33° C | 67% | 989.8 hPa | 0 mm | 0 m/s | - | - |
| 1778082441 | 13.33° C | 67% | 989.8 hPa | 0 mm | 0 m/s | - | - |
| 1778082261 | 12.78° C | 68% | 989.8 hPa | 0 mm | 0.45 m/s, 4° | - | - |
| 1778082201 | 12.78° C | 68% | 989.8 hPa | 0 mm | 0.45 m/s, 4° | - | - |
| 1778082081 | 12.78° C | 68% | 989.8 hPa | 0 mm | 0.45 m/s, 4° | - | - |
| 1778082021 | 12.78° C | 69% | 990.3 hPa | 0 mm | 0.45 m/s, 183° | - | - |
| 1778081841 | 12.78° C | 69% | 990.3 hPa | 0 mm | 0.45 m/s, 183° | - | - |
| 1778081781 | 12.78° C | 69% | 990.3 hPa | 0 mm | 0.45 m/s, 183° | - | - |
| 1778081721 | 12.78° C | 66% | 990.1 hPa | 0 mm | 0.45 m/s, 15° | - | - |
| 1778081661 | 12.78° C | 66% | 990.1 hPa | 0 mm | 0.45 m/s, 15° | - | - |
| 1778081601 | 12.78° C | 66% | 990.1 hPa | 0 mm | 0.45 m/s, 15° | - | - |
| 1778081541 | 12.78° C | 66% | 990.1 hPa | 0 mm | 0.45 m/s, 15° | - | - |
| 1778081421 | 12.78° C | 71% | 989.9 hPa | 0 mm | 0.45 m/s, 262° | - | - |
* Rain latest hour (hover to see other rain measurements)
** Current wind speed in m/s (hover to see current wind gust speed)